Location: Newark
(50.0306°N, 2.3272°E)
Time: 18:03:25
(UTC+00:00)

Vanguard 1 Rocket - Pass Details

Date: 16 December 2019
Orbit: 650 x 4226 km, 34.3° (Epoch: 26 January)

Event Time Altitude Azimuth Distance (km) Brightness Sun altitude
Rises 01:07:00 0° 270° (W) 5,883 - -58.9°
Reaches altitude 10° 01:14:07 10° 247° (WSW) 3,978 - -58.2°
Maximum altitude 01:17:56 13° 224° (SW) 3,260 - -57.8°
Drops below altitude 10° 01:21:04 10° 199° (SSW) 3,086 - -57.5°
Sets 01:25:06 0° 171° (S) 3,566 - -57.0°
